Location: Abundant Grace Fellowship
(35.0349°N, 90.0924°W)
Time: 08:58:01
(UTC+00:00)

Resurs 01 Rocket - Pass Details

Date: 18 January 2026
Orbit: 627 x 635 km, 97.7° (Epoch: 10 February)

Event Time Altitude Azimuth Distance (km) Brightness Sun altitude
Rises 01:20:30 0° 175° (S) 2,898 5.0 -25.6°
Reaches altitude 10° 01:22:43 10° 179° (S) 1,995 4.2 -26.0°
Maximum altitude 01:27:00 60° 259° (W) 720 2.0 -26.9°
Drops below altitude 10° 01:31:19 10° 340° (NNW) 2,008 4.3 -27.8°
Sets 01:33:33 0° 344° (NNW) 2,920 5.1 -28.2°
